sat.trackr.live / text

‹ back to catalog

STARLINK-11349 [DTC]

NORAD 61544 · 2024-184N

PAYLOAD ACTIVE UNKNOWN

§ Identity

Operator
Country
US
Launch date
2024-10-15
Launch site
AFWTR
Launch vehicle
Mass (kg)
RCS (m²)

Purposes: comms

External: N2YO · Heavens-Above · Gunter

§ Orbital elements

Epoch: 2026-05-25T05:01:11.779104Z

Period
91.74 min
Inclination
53.1594°
Eccentricity
0.0001250
Mean motion
15.69712152 rev/d
Perigee alt
358.9 km
Apogee alt
360.6 km
Semi-major
6,737.9 km
B*
1.5200e-5
RAAN
219.1880°
Arg perigee
73.4837°
Mean anomaly
286.6318°
Rev number
9,243

§ Raw data

STARLINK-11349 [DTC]1 61544U 24184N   26145.20916411  .00001253  00000+0  15200-4 0  99932 61544  53.1594 219.1880 0001250  73.4837 286.6318 15.69712152 92439

JSON: /api/v1/satellites/61544 · /tle

For live sub-satellite position, see the globe view (requires WebGL).

§ Visibility from observer

Set your observer location to see the next 7 days of passes ≥ 10°. The values pass through the URL so the page stays shareable.

No JS? Fill the form by hand. The geolocation button needs JavaScript.